• Em Portugal
  • Lista de países
  • Para 7 dias
  • Temperatura da água
  • Mapas de satélite
  • Mapa do tempo
  • Widgets de tempo
  • user-avatar
    Iniciar Sessão

    Previsão horária em Ruse

    Hoje, 24 Setembro, Segunda-feira

    Tempo Temperatura Precipitação Vento Pressão Humidade
    00:00 +21°C° 0 mm 2 m/s 757 mmHg 61%
    01:00 +21°C° 0 mm 2 m/s 757 mmHg 63%
    02:00 +20°C° 0 mm 2 m/s 756 mmHg 66%
    03:00 +20°C° 0 mm 2 m/s 756 mmHg 68%
    04:00 +20°C° 0 mm 2 m/s 755 mmHg 69%
    05:00 +20°C° 0 mm 2 m/s 755 mmHg 71%
    06:00 +21°C° 0 mm 2 m/s 754 mmHg 65%
    07:00 +23°C° 0 mm 2 m/s 754 mmHg 60%
    08:00 +25°C° 0 mm 2 m/s 753 mmHg 54%
    09:00 +27°C° 0 mm 3 m/s 753 mmHg 47%
    10:00 +29°C° 0 mm 3 m/s 752 mmHg 40%
    11:00 +32°C° 0 mm 4 m/s 752 mmHg 33%
    12:00 +33°C° 0 mm 5 m/s 752 mmHg 32%
    13:00 +33°C° 0 mm 6 m/s 751 mmHg 31%
    14:00 +34°C° 0 mm 7 m/s 751 mmHg 30%
    15:00 +32°C° 0 mm 8 m/s 752 mmHg 34%
    16:00 +28°C° 0 mm 9 m/s 752 mmHg 38%
    17:00 +26°C° 0 mm 10 m/s 753 mmHg 42%
    18:00 +23°C° 0 mm 10 m/s 754 mmHg 45%
    19:00 +19°C° 0 mm 9 m/s 756 mmHg 49%
    20:00 +17°C° 0 mm 9 m/s 757 mmHg 52%
    21:00 +16°C° 0.1 mm 8 m/s 758 mmHg 53%
    22:00 +15°C° 0.1 mm 8 m/s 759 mmHg 53%
    23:00 +15°C° 0.1 mm 7 m/s 760 mmHg 53%

    Amanhã, 25 Setembro, Terça-feira

    Tempo Temperatura Precipitação Vento Pressão Humidade
    00:00 +14°C° 0 mm 7 m/s 761 mmHg 53%
    01:00 +14°C° 0 mm 6 m/s 761 mmHg 53%
    02:00 +13°C° 0 mm 6 m/s 761 mmHg 52%
    03:00 +13°C° 0 mm 6 m/s 761 mmHg 54%
    04:00 +12°C° 0 mm 5 m/s 762 mmHg 55%
    05:00 +12°C° 0 mm 5 m/s 762 mmHg 56%
    06:00 +12°C° 0 mm 5 m/s 762 mmHg 54%
    07:00 +11°C° 0 mm 6 m/s 763 mmHg 52%
    08:00 +11°C° 0 mm 6 m/s 763 mmHg 50%
    09:00 +14°C° 0 mm 6 m/s 763 mmHg 44%
    10:00 +15°C° 0 mm 6 m/s 763 mmHg 38%
    11:00 +17°C° 0 mm 6 m/s 763 mmHg 32%
    12:00 +19°C° 0 mm 6 m/s 763 mmHg 29%
    13:00 +19°C° 0 mm 6 m/s 763 mmHg 26%
    14:00 +20°C° 0 mm 6 m/s 763 mmHg 23%
    15:00 +20°C° 0 mm 6 m/s 763 mmHg 25%
    16:00 +19°C° 0 mm 6 m/s 763 mmHg 27%
    17:00 +17°C° 0 mm 5 m/s 763 mmHg 29%
    18:00 +17°C° 0 mm 4 m/s 764 mmHg 32%
    19:00 +16°C° 0 mm 3 m/s 765 mmHg 35%
    20:00 +15°C° 0 mm 2 m/s 766 mmHg 38%
    21:00 +14°C° 0 mm 2 m/s 766 mmHg 39%
    22:00 +13°C° 0 mm 2 m/s 767 mmHg 40%
    23:00 +12°C° 0 mm 2 m/s 767 mmHg 41%

    Depois de amanhã, 26 Setembro, Quarta-feira

    Tempo Temperatura Precipitação Vento Pressão Humidade
    00:00 +12°C° 0 mm 2 m/s 768 mmHg 42%
    01:00 +10°C° 0 mm 2 m/s 768 mmHg 44%
    02:00 +11°C° 0 mm 1 m/s 768 mmHg 46%
    03:00 +10°C° 0 mm 1 m/s 768 mmHg 48%
    04:00 +10°C° 0 mm 1 m/s 769 mmHg 50%
    05:00 +9°C° 0 mm 1 m/s 769 mmHg 53%
    06:00 +10°C° 0 mm 1 m/s 769 mmHg 51%
    07:00 +11°C° 0 mm 1 m/s 769 mmHg 49%
    08:00 +12°C° 0 mm 2 m/s 770 mmHg 47%
    09:00 +13°C° 0 mm 2 m/s 770 mmHg 44%
    10:00 +13°C° 0 mm 3 m/s 770 mmHg 41%
    11:00 +14°C° 0 mm 3 m/s 770 mmHg 38%
    12:00 +16°C° 0 mm 3 m/s 769 mmHg 36%
    13:00 +17°C° 0 mm 3 m/s 769 mmHg 34%
    14:00 +17°C° 0 mm 4 m/s 768 mmHg 32%
    15:00 +17°C° 0 mm 3 m/s 768 mmHg 32%
    16:00 +17°C° 0 mm 3 m/s 768 mmHg 32%
    17:00 +16°C° 0 mm 3 m/s 768 mmHg 32%
    18:00 +14°C° 0 mm 3 m/s 768 mmHg 35%
    19:00 +13°C° 0 mm 2 m/s 769 mmHg 39%
    20:00 +12°C° 0 mm 2 m/s 769 mmHg 42%
    21:00 +10°C° 0 mm 2 m/s 769 mmHg 44%
    22:00 +10°C° 0 mm 2 m/s 770 mmHg 46%
    23:00 +9°C° 0 mm 2 m/s 770 mmHg 48%

    27 Setembro, Quinta-feira

    Tempo Temperatura Precipitação Vento Pressão Humidade
    00:00 +9°C° 0 mm 1 m/s 770 mmHg 50%
    01:00 +9°C° 0 mm 1 m/s 770 mmHg 51%
    02:00 +8°C° 0 mm 1 m/s 769 mmHg 53%
    03:00 +8°C° 0 mm 1 m/s 769 mmHg 55%
    04:00 +8°C° 0 mm 1 m/s 769 mmHg 56%
    05:00 +7°C° 0 mm 1 m/s 769 mmHg 58%
    06:00 +8°C° 0 mm 1 m/s 769 mmHg 54%
    07:00 +9°C° 0 mm 1 m/s 769 mmHg 50%
    08:00 +11°C° 0 mm 1 m/s 768 mmHg 47%
    09:00 +12°C° 0 mm 1 m/s 768 mmHg 42%
    10:00 +14°C° 0 mm 1 m/s 768 mmHg 38%
    11:00 +16°C° 0 mm 2 m/s 767 mmHg 33%
    12:00 +17°C° 0 mm 2 m/s 767 mmHg 31%
    13:00 +18°C° 0 mm 2 m/s 766 mmHg 28%
    14:00 +19°C° 0 mm 3 m/s 765 mmHg 25%
    15:00 +19°C° 0 mm 2 m/s 765 mmHg 26%
    16:00 +19°C° 0 mm 2 m/s 764 mmHg 26%
    17:00 +19°C° 0 mm 2 m/s 764 mmHg 26%
    18:00 +18°C° 0 mm 1 m/s 764 mmHg 29%
    19:00 +15°C° 0 mm 1 m/s 764 mmHg 32%
    20:00 +13°C° 0 mm 1 m/s 764 mmHg 35%
    21:00 +12°C° 0 mm 1 m/s 764 mmHg 37%
    22:00 +12°C° 0 mm 1 m/s 764 mmHg 38%
    23:00 +10°C° 0 mm 0 m/s 764 mmHg 39%

    28 Setembro, Sexta-feira

    Tempo Temperatura Precipitação Vento Pressão Humidade
    00:00 +11°C° 0 mm 1 m/s 764 mmHg 39%
    01:00 +11°C° 0 mm 1 m/s 763 mmHg 40%
    02:00 +10°C° 0 mm 1 m/s 763 mmHg 41%
    03:00 +10°C° 0 mm 1 m/s 763 mmHg 42%
    04:00 +10°C° 0 mm 1 m/s 763 mmHg 43%
    05:00 +10°C° 0 mm 1 m/s 762 mmHg 43%
    06:00 +11°C° 0 mm 1 m/s 762 mmHg 41%
    07:00 +12°C° 0 mm 1 m/s 762 mmHg 38%
    08:00 +13°C° 0 mm 1 m/s 762 mmHg 36%
    09:00 +15°C° 0 mm 1 m/s 762 mmHg 33%
    10:00 +19°C° 0 mm 1 m/s 761 mmHg 30%
    11:00 +21°C° 0 mm 1 m/s 761 mmHg 27%
    12:00 +21°C° 0 mm 2 m/s 760 mmHg 27%
    13:00 +23°C° 0 mm 2 m/s 760 mmHg 27%
    14:00 +24°C° 0 mm 3 m/s 759 mmHg 27%
    15:00 +24°C° 0 mm 2 m/s 758 mmHg 29%
    16:00 +24°C° 0 mm 2 m/s 758 mmHg 30%
    17:00 +23°C° 0 mm 2 m/s 758 mmHg 32%
    18:00 +21°C° 0 mm 2 m/s 758 mmHg 36%
    19:00 +20°C° 0 mm 1 m/s 758 mmHg 41%
    20:00 +18°C° 0 mm 1 m/s 758 mmHg 45%
    21:00 +16°C° 0 mm 1 m/s 758 mmHg 47%
    22:00 +15°C° 0 mm 1 m/s 758 mmHg 50%
    23:00 +15°C° 0 mm 1 m/s 758 mmHg 53%

    29 Setembro, Sábado

    Tempo Temperatura Precipitação Vento Pressão Humidade
    00:00 +14°C° 0 mm 1 m/s 758 mmHg 55%
    01:00 +14°C° 0 mm 1 m/s 757 mmHg 57%
    02:00 +13°C° 0 mm 0 m/s 757 mmHg 59%
    03:00 +13°C° 0 mm 1 m/s 757 mmHg 60%
    04:00 +13°C° 0 mm 1 m/s 757 mmHg 61%
    05:00 +13°C° 0 mm 1 m/s 757 mmHg 61%
    06:00 +14°C° 0 mm 1 m/s 757 mmHg 58%
    07:00 +15°C° 0 mm 1 m/s 757 mmHg 54%
    08:00 +16°C° 0 mm 1 m/s 757 mmHg 50%
    09:00 +19°C° 0 mm 1 m/s 757 mmHg 46%
    10:00 +21°C° 0 mm 1 m/s 756 mmHg 41%
    11:00 +23°C° 0 mm 1 m/s 756 mmHg 37%
    12:00 +24°C° 0 mm 2 m/s 756 mmHg 36%
    13:00 +25°C° 0 mm 2 m/s 756 mmHg 34%
    14:00 +26°C° 0 mm 2 m/s 755 mmHg 33%
    15:00 +25°C° 0 mm 1 m/s 755 mmHg 34%
    16:00 +25°C° 0 mm 1 m/s 755 mmHg 35%
    17:00 +25°C° 0 mm 1 m/s 755 mmHg 36%
    18:00 +23°C° 0 mm 1 m/s 755 mmHg 40%
    19:00 +22°C° 0 mm 1 m/s 756 mmHg 43%
    20:00 +20°C° 0 mm 1 m/s 756 mmHg 46%
    21:00 +19°C° 0 mm 1 m/s 757 mmHg 48%
    22:00 +18°C° 0 mm 2 m/s 757 mmHg 50%
    23:00 +17°C° 0 mm 3 m/s 757 mmHg 52%
    Mostrar mais